User: anonymous   Login
Location: Unspecified
(0.0000°N, 0.0000°E)
Time: 04:43:40
(UTC+00:00)
Language:

DFH-1 - Orbit

View from above orbital plane
View from above orbital plane
View from above satellite
View from above satellite

Ground track
Ground track

The orbit data is extracted from the following two-line orbital elements,

1  4382U 70034A   21335.91467015  .00000654  00000-0  10909-3 0  9995
2  4382  68.4202 186.8282 1049421  26.4487 338.6401 13.08222465428325
Epoch (UTC): 01 December 2021 21:57:07
Eccentricity: 0.1049421
inclination: 68.4202°
perigee height: 431 km
apogee height: 2028 km
right ascension of ascending node: 186.8282°
argument of perigee: 26.4487°
revolutions per day: 13.08222465
mean anomaly at epoch: 338.6401°
orbit number at epoch: 42832

The dashed part of the orbit path shows where the satellite is in the earth's shadow,  

DLR